Weather in Kargalinskaya

Russia / Chechen Republic     43°44′31″N   46°28′36″E
temp.,
°C
wind,
m/s
gust,
m/s
humid.,
%
clouds,
%
prec.,
mm/h
press.,
hPa
HPBL,
m
10 may, mon
mon1000:00+9w101587100 1.4 10191364
03:00+9w91482100 2.1 1020991
06:00+9wsw91481100 2.6 1020933
09:00+13w9135543 2.6 10201711
12:00+16wnw8113898 0.0 10192575
15:00+17wnw6834100 0.0 10192559
18:00+14wsw4748100 0.0 1019232
21:00+10sw485895 0.0 1020171
11 may, tue
tue1100:00+9w4768100 0.0 1021125
03:00+8ne007189 0.0 102010
06:00+9ne24715 0.0 1019140
09:00+16ese594778 0.0 10192110
12:00+18ese9104041 0.0 10172157
15:00+17ese911435 0.0 10171709
18:00+14e6960100 0.0 1017862
21:00+10e48814 0.0 1018136
12 may, wed
wed1200:00+10e3780100 0.0 1017150
03:00+9e22860 0.0 101613
06:00+11s11790 0.0 101766
09:00+17ene23590 0.0 1016883
12:00+21ese234917 0.0 10161564
15:00+23nne434895 0.0 10151699
18:00+19ese456695 0.0 1016244
21:00+14se33650 0.0 101627
13 may, thu
thu1300:00+12se22685 0.0 101624
03:00+11ese22750 0.0 101514
06:00+13ese23780 0.0 1016105
09:00+20e33611 0.0 1016658
12:00+24e34465 0.0 10141005
15:00+26ese55430 0.0 10141173
18:00+20ese46620 0.0 1014233
21:00+14ese35801 0.0 101673
14 may, fri
fri1400:00+12ese33860 0.0 101531
03:00+12ese34880 0.0 101545
06:00+15ese36800 0.0 1015166
09:00+22ese56570 0.0 1014612
12:00+27ese79460 0.0 1014861
15:00+27ese915420 0.0 1013710
18:00+22ese819520 0.0 1013506
21:00+19ese718530 0.0 1013359